Regional Weather Roundup
Issued by NWS Jackson, KY

Home | Current Version | Previous Version | Graphics & Text | Print | Product List | Glossary On
Versions: 1 2 3 4 5 6 7 8 9 10 11 12 13 14 15 16 17 18 19 20 21 22 23 24 25 26 27 28 29 30 31 32 33 34 35 36 37 38 39 40 41 42 43 44 45 46 47 48 49 50
053
ASUS43 KJKL 270510
RWRJKL

EAST KENTUCKY HOURLY WEATHER ROUNDUP
NATIONAL WEATHER SERVICE JACKSON KY
100 AM EDT THU APR 27 2017

NOTE: "FAIR" INDICATES FEW OR NO CLOUDS BELOW 12,000 FEET WITH
NO SIGNIFICANT WEATHER AND/OR OBSTRUCTIONS TO VISIBILITY.

* THESE REPORTS ARE NOT UNDER NWS QUALITY CONTROL AND MAY NOT
  REPORT WEATHER SUCH AS PRECIPITATION AND FOG.

KYZ079-080-083-085-087-088-110-112-115-119-120-270600
...EASTERN KENTUCKY...

CITY           SKY/WX    TMP DP  RH WIND       PRES   REMARKS
JACKSON        CLEAR     69  51  52 CALM      29.68R
LONDON         CLOUDY    68  56  65 S5        29.68S
SOMERSET*      PTCLDY    72  54  53 S10G21    29.67S
MONTICELLO*    CLOUDY    73  57  57 SE16G25   29.66S
WILLIAMSBURG*  CLOUDY    68  57  68 S6        29.69S
MIDDLESBORO*   CLEAR     71  57  60 S12G18    29.73R
HARLAN APT*    CLEAR     66  54  63 CALM      29.74R
PIKE CO APT*     N/A     70  54  56 S3        29.70S
BIG SANDY APT* CLEAR     73  53  49 S10       29.68S
MOREHEAD APT*  CLEAR     72  52  49 CALM      29.66S
$$

KYZ035-036-041-042-044-050-067-078-099-270600
...CENTRAL KENTUCKY...

CITY           SKY/WX    TMP DP  RH WIND       PRES   REMARKS
MT STERLING*   CLOUDY    68  54  60 S8        29.65S
FLEMING/MASON* CLOUDY    70  52  52 S7        29.64R
DANVILLE*      PTCLDY    68  55  64 S9        29.64S
LEXINGTON      PTCLDY    68  54  60 S10       29.63R
FRANKFORT      CLOUDY    71  53  52 S9        29.60R
LOUISVILLE     CLOUDY    74  58  57 S9        29.57R
LEBANON*         N/A     70  57  64 S10       29.62R
GLASGOW*       CLOUDY    69  57  66 SW7       29.63R
BOWLING GREEN  MOCLDY    73  59  61 S20G26    29.59S
$$

KYZ091>093-OHZ055-061-077-WVZ005-015-034-035-042-270600
...SOUTHERN OHIO/WEST VIRGINIA...

CITY           SKY/WX    TMP DP  RH WIND       PRES   REMARKS
COVINGTON      MOCLDY    68  55  63 S12       29.58R
COLUMBUS       MOCLDY    73  53  49 SE10      29.60F
DAYTON         MOCLDY    69  49  48 SE10      29.58R
WILMINGTON     PTCLDY    66  53  63 S8        29.60S
HUNTINGTON     CLEAR     62  55  77 E6        29.65S
CHARLESTON     CLEAR     61  55  81 N3        29.68S
PINEVILLE*     CLEAR     60  57  91 MISG      29.80F
BECKLEY        CLEAR     65  55  70 SE10      29.80S
BLUEFIELD      CLEAR     64  53  67 S8        29.83F
LOGAN CO APT*    N/A     72  57  60 VRB6      29.71F
$$

VAZ002-007-008-TNZ017-027-036-066-071-270600
...SOUTHWEST VIRGINIA/EAST TENNESSEE...

CITY           SKY/WX    TMP DP  RH WIND       PRES   REMARKS
WISE*          CLEAR     68  52  56 S12G20    29.80R
JONESVILLE*      N/A     68  55  64 CALM      29.77R
ABINGDON*      CLEAR     67  55  64 E3        29.80S
BRISTOL        CLEAR     60  55  83 CALM      29.77F
MORRISTOWN*    CLEAR     63  59  88 CALM      29.74S
SEVIERVILLE*   CLEAR     61  57  88 CALM      29.73R
KNOXVILLE      CLEAR     73  54  51 S12       29.74R
LAFOLLETTE*    CLEAR     73  55  53 S18G31    29.75R
OAK RIDGE      CLEAR     71  55  56 VRB3      29.76R
CROSSVILLE     CLOUDY    68  55  63 S15G30    29.74S
NASHVILLE      MOCLDY    74  58  57 S20G32    29.62R
$$

...KEY TO REMARKS...
VSB - VISIBILITY IN MILES
WCI - WIND CHILL INDEX
HX  - HEAT INDEX

$$




USA.gov is the U.S. government's official web portal to all federal, state and local government web resources and services.